Location: Fontevrault
(47.1823°N, 0.0493°E)
Time: 03:12:23
(UTC+00:00)

Uosat 12 SS-18 rocket - Pass Details

Date: 25 October 2021
Orbit: 579 x 1405 km, 64.6° (Epoch: 01 December)

Event Time Altitude Azimuth Distance (km) Brightness Sun altitude
Rises 21:06:51 0° 317° (NW) 3,672 8.8 -42.2°
Reaches altitude 10° 21:09:47 10° 331° (NNW) 2,861 8.0 -42.6°
Enters shadow 21:12:52 21° 355° (N) 2,274 7.1 -43.0°
